Kuchera_Ratio
0.0 0.0 0.0 0.0 0.0 0.0 0.0 0.0 0.2 0.1 0.0 1.0 0.5 1.4 2.4 3.3 5.4 8.2 8.7 9.5 9.7 10.7 10.7 10.7 9.5 7.7 8.1 8.5 8.1 8.3 9.3 9.9 12.7 9.6 9.4 8.5 8.0 7.1 4.2 1.7 1.3 2.0 1.8
0.0 0.0 0.0 0.0 0.0 0.0 0.0 0.0 0.0 0.4 0.0 0.0 0.0 1.4 2.4 3.2 7.1 8.9 10.6 10.7 10.7 11.7 11.1 10.7 10.5 6.7 8.5 7.9 8.7 9.7 9.5 10.1 11.7 13.4 10.3 10.9 9.7 8.4 7.6 7.4 3.8 0.0 2.2
0.0 0.0 0.0 0.0 0.0 0.0 0.0 0.0 0.0 0.2 0.3 0.4 0.7 1.4 2.4 5.5 7.7 10.1 11.7 10.7 11.1 10.3 10.1 10.5 10.5 8.9 9.7 9.5 10.1 11.1 11.7 9.1 11.1 12.5 12.8 11.3 11.1 9.5 8.9 8.0 7.8 8.0 2.7
0.0 0.0 0.0 0.0 0.0 0.0 0.0 0.0 0.0 0.0 0.3 0.4 0.8 1.4 2.8 6.5 7.3 9.1 9.7 10.9 11.3 9.3 8.5 8.3 7.7 8.3 7.9 9.1 9.7 10.9 10.3 12.0 12.0 12.8 12.6 12.3 11.4 9.3 9.0 9.6 11.4 8.4 8.5
0.0 0.0 0.0 0.0 0.0 0.0 0.0 0.0 0.0 0.1 0.3 0.6 1.3 1.8 4.5 7.3 4.7 8.5 9.7 9.7 11.1 11.1 9.3 7.7 7.5 5.3 3.3 5.5 8.5 9.9 10.9 12.1 12.6 13.1 13.3 13.2 13.5 12.5 10.1 9.2 12.0 9.5 8.2
0.0 0.0 0.0 0.0 0.0 0.0 0.0 0.3 0.4 0.7 1.2 1.5 2.5 3.9 7.5 3.5 3.5 3.9 6.5 10.1 12.0 11.9 12.0 10.3 8.3 6.3 7.5 5.5 6.1 6.1 8.3 12.1 12.7 12.9 13.2 13.2 13.2 11.8 9.1 10.8 12.1 12.6 13.6
0.0 0.0 0.0 0.0 0.0 0.0 0.4 1.3 1.8 3.0 2.9 3.6 4.5 5.5 8.4 11.1 4.1 5.1 5.7 9.5 11.3 12.3 12.2 11.7 10.1 6.5 7.9 9.9 8.5 7.1 7.7 7.1 9.9 10.7 12.2 12.0 12.1 11.1 10.1 11.7 11.3 10.4 12.1
0.0 0.0 0.0 0.0 0.0 0.7 1.9 3.0 5.2 5.7 6.1 6.8 7.1 7.6 8.8 5.9 4.7 5.7 6.3 9.3 10.5 11.3 11.9 11.5 11.1 10.9 9.9 9.1 8.9 9.9 9.7 9.3 8.7 7.9 8.1 7.7 7.9 7.7 10.4 6.9 10.4 11.0 9.5
0.0 0.0 0.0 0.0 0.5 1.6 3.4 4.9 7.8 8.3 8.3 7.7 6.5 7.9 9.1 10.5 5.3 6.1 7.3 10.7 10.7 10.9 9.9 10.5 9.9 10.3 7.7 5.9 9.1 10.5 10.3 10.1 4.9 3.1 3.3 3.9 4.3 4.1 4.1 9.7 12.2 13.2 12.5
0.0 0.0 0.0 0.0 0.1 2.7 4.0 5.8 8.0 10.0 8.5 7.9 8.5 9.3 6.7 11.3 6.9 6.1 6.7 11.3 12.4 12.0 10.3 8.9 7.5 8.5 7.3 6.9 8.7 9.9 11.1 9.3 8.5 7.9 9.3 7.1 4.7 5.3 4.6 7.7 10.8 12.5 12.0
0.0 0.0 0.0 0.0 0.0 2.7 4.1 6.0 7.6 9.4 10.6 11.9 11.9 12.0 11.1 8.8 10.1 6.1 6.5 11.3 12.3 12.2 11.9 11.7 9.7 7.5 7.1 6.5 6.5 8.3 9.1 7.9 7.3 7.9 7.9 7.7 7.1 7.3 9.7 7.1 10.6 11.3 10.3
0.0 0.0 0.0 0.0 0.0 1.5 4.0 5.7 6.9 9.1 11.7 12.6 12.4 11.9 10.1 8.9 6.9 6.7 6.7 7.5 9.7 12.6 12.7 11.3 10.5 7.9 7.5 7.3 7.5 7.3 7.1 7.5 7.1 7.7 8.5 9.5 9.7 8.7 6.5 6.3 4.9 4.7 4.7
0.2 0.0 0.0 0.0 0.6 2.4 4.0 5.7 6.8 8.8 12.2 12.6 12.3 12.8 12.1 9.5 9.5 6.9 7.3 6.7 9.7 12.3 11.3 10.1 9.3 8.9 8.5 9.3 7.9 7.7 7.7 7.7 7.9 8.5 9.3 9.7 8.1 7.3 6.5 7.3 5.7 4.7 4.1
0.4 0.2 0.2 1.6 1.9 2.4 2.6 4.4 5.9 8.6 12.1 12.4 12.6 13.7 13.1 12.2 11.5 10.1 10.1 9.7 10.9 12.0 12.2 12.0 11.3 10.7 9.5 9.3 9.5 8.5 8.3 7.9 8.3 8.9 8.5 7.7 7.1 7.5 7.7 6.7 7.7 7.5 7.9
0.3 1.2 1.4 2.4 2.4 2.9 2.8 3.8 5.2 6.9 11.1 12.8 13.4 13.6 14.4 13.7 11.7 8.3 9.1 11.3 12.0 12.4 12.3 12.6 13.3 13.4 13.1 12.6 11.9 10.3 9.3 8.9 9.3 8.3 8.3 7.9 7.9 7.7 7.9 7.5 7.7 7.9 8.3
2.4 2.9 2.7 2.8 2.7 3.1 4.2 4.2 2.8 3.6 6.3 6.9 4.9 7.0 8.7 6.0 5.5 6.5 7.3 7.3 8.3 10.3 13.5 15.0 15.1 14.8 14.6 14.0 13.4 12.6 11.5 11.1 9.7 8.9 8.5 8.1 8.3 8.1 7.9 7.9 7.9 8.3 8.9
4.0 3.8 3.5 3.6 3.8 4.7 5.2 7.0 9.4 6.8 4.6 5.9 4.9 4.7 4.9 4.9 5.7 6.7 8.1 8.5 9.5 11.9 15.0 15.5 15.7 15.4 15.1 14.5 13.9 13.4 13.3 12.3 10.3 9.1 9.1 8.5 8.1 7.7 8.3 8.7 8.5 8.3 8.7
2.9 2.9 3.8 4.5 4.9 5.1 6.2 6.8 7.8 10.3 11.4 11.8 6.2 6.3 6.1 5.5 6.5 7.7 8.9 10.9 14.1 13.8 14.8 15.6 15.9 15.7 15.4 15.2 14.5 14.0 13.4 12.7 12.1 10.1 9.3 9.1 8.1 8.1 8.7 9.3 9.1 9.3 8.9
2.7 3.4 4.0 4.8 5.8 5.9 7.3 8.4 9.3 9.9 10.3 10.5 9.5 9.1 8.6 6.9 7.3 8.7 9.9 13.7 14.9 15.3 15.0 15.3 15.4 15.5 15.5 15.4 15.0 14.4 13.9 13.4 12.4 11.3 9.9 9.3 8.7 8.1 8.3 8.7 8.9 9.3 8.9
3.1 4.2 5.1 5.9 6.8 7.2 8.6 9.3 9.5 10.5 10.9 11.7 11.5 12.2 10.9 11.3 12.8 13.4 13.2 13.8 14.4 14.6 14.7 15.2 15.1 15.5 15.9 15.6 15.5 14.9 14.1 13.2 12.6 11.7 10.3 9.3 8.9 8.3 8.5 8.3 8.9 9.5 9.3
3.5 6.0 6.3 7.3 8.8 8.9 9.5 10.3 10.5 11.3 12.2 12.5 12.4 11.5 11.9 12.7 12.8 13.0 13.3 13.4 13.8 14.3 14.8 15.1 15.3 15.8 16.0 16.0 15.5 15.2 14.2 13.5 12.7 11.7 10.1 9.7 8.9 9.5 8.3 7.7 7.9 8.5 8.9
4.2 6.7 8.1 9.2 9.9 9.7 10.7 10.3 11.5 12.1 12.2 12.4 12.5 11.7 11.3 12.7 12.7 13.1 13.3 13.3 13.0 13.3 13.7 14.7 15.1 15.9 16.5 16.8 16.3 15.7 14.7 13.8 12.8 11.5 10.5 9.7 9.1 8.9 8.1 8.1 7.9 8.3 8.7
5.6 7.6 9.9 10.1 10.3 13.0 12.2 12.0 12.1 12.5 12.0 12.0 12.1 12.2 12.2 12.8 12.9 13.0 13.3 13.3 13.0 12.8 13.4 14.3 15.1 16.4 16.3 16.6 16.0 15.5 15.5 14.0 12.8 11.1 10.9 10.1 9.5 9.1 8.9 8.9 8.3 8.7 9.3
8.3 9.7 10.3 11.1 12.4 12.1 11.5 12.3 12.3 11.9 12.1 12.3 12.8 12.5 12.8 12.8 12.9 13.0 12.9 12.8 12.8 12.7 13.1 14.2 14.8 16.3 17.0 16.2 16.0 15.9 15.7 14.1 11.7 10.7 9.9 9.9 9.9 9.3 8.7 9.3 9.1 8.7 8.3
10.5 11.1 12.1 13.1 12.1 12.1 12.5 12.3 12.5 12.6 12.5 12.6 12.9 12.8 12.4 12.5 12.6 12.8 12.6 12.4 12.5 12.6 12.8 13.5 14.5 15.9 17.0 16.3 15.6 15.2 14.8 14.7 13.4 12.6 9.9 9.7 10.1 9.7 9.5 9.5 9.3 9.3 9.3
10.9 11.3 12.2 11.7 12.0 12.4 12.8 13.1 13.0 12.8 13.0 12.8 12.7 12.8 12.7 12.7 12.5 12.4 12.1 12.2 12.6 12.6 12.7 12.9 13.8 15.3 16.3 15.9 16.1 14.9 14.6 14.2 14.4 12.9 12.3 11.9 11.1 10.7 10.3 10.7 10.3 9.9 9.9